Probability
0 0 0 0 0 0 0 0 0 0 0 0 0 0 3 0 0 0 0 0 3 3 0 0 0 0 0 0 0 0 3 0 3 3 0 0 0 0 0 0 0 0 0 0
0 0 0 0 0 0 0 0 0 0 0 0 0 0 3 0 0 0 0 0 0 3 0 0 0 0 0 0 0 3 3 3 0 0 0 0 0 0 0 0 0 0 0 0
0 0 0 0 0 0 0 0 0 0 0 0 0 0 0 0 0 0 0 0 0 0 0 0 0 0 3 3 3 3 3 0 0 0 0 0 0 0 0 0 0 0 0 0
0 0 0 0 0 0 0 0 0 0 0 0 0 0 0 0 0 0 0 0 0 0 0 0 0 0 3 3 3 3 3 3 0 0 0 0 0 0 0 0 0 0 0 0
0 0 0 0 0 0 0 0 0 0 0 0 0 0 0 0 0 0 0 0 0 0 0 0 0 0 0 3 3 3 3 3 3 3 0 0 0 0 0 0 0 0 0 0
0 0 0 0 0 0 0 0 0 0 0 0 0 0 0 0 0 0 0 0 0 0 0 0 0 0 0 3 3 3 3 3 3 3 0 0 0 0 0 0 0 0 0 0
0 0 0 0 0 0 0 0 0 0 0 0 0 0 0 0 0 0 0 0 0 0 0 0 0 0 0 3 3 3 3 3 3 3 3 0 0 0 0 0 0 0 0 0
0 0 0 0 0 0 0 0 0 0 0 0 0 0 0 0 0 0 0 0 0 0 0 0 0 0 0 0 3 3 3 3 3 3 0 0 0 0 0 0 0 0 0 0
0 0 0 0 0 0 0 0 0 0 0 0 0 0 0 0 0 0 0 0 0 0 0 0 0 0 0 0 0 0 3 3 3 3 0 0 0 0 0 0 0 0 0 0
0 0 0 0 0 0 0 0 0 0 0 0 0 0 0 0 0 0 0 0 0 0 0 0 0 0 0 0 0 0 0 3 3 3 3 0 0 0 0 0 0 0 0 0
0 0 0 0 0 0 0 0 0 0 0 0 0 0 0 0 0 0 0 0 0 0 0 0 0 0 0 0 0 0 0 0 0 3 3 0 0 0 0 0 0 0 0 0
0 0 0 0 0 0 0 0 0 0 0 0 0 0 0 0 0 0 0 0 0 0 0 0 0 0 0 0 0 0 0 0 0 0 0 0 0 0 0 0 0 0 0 0
0 0 0 0 0 0 0 0 0 0 0 0 0 0 0 0 0 0 0 0 0 0 0 0 0 0 0 0 0 0 0 0 0 0 0 0 0 0 0 0 0 0 0 0
0 0 0 0 0 0 0 0 0 0 0 0 0 0 0 0 0 0 0 0 0 0 0 0 0 0 0 0 0 0 0 0 0 0 0 0 0 0 0 0 0 0 0 0
0 0 0 0 0 0 0 0 0 0 0 0 0 0 0 0 0 0 0 0 0 0 0 0 0 0 0 0 0 0 0 0 0 0 0 0 0 0 0 0 0 0 0 0
0 0 0 0 0 0 0 0 0 0 0 0 0 0 0 0 0 0 0 0 0 0 0 0 0 0 0 0 0 0 0 0 0 0 0 0 0 0 0 0 0 0 0 0
0 0 0 0 0 0 0 0 0 0 0 0 0 0 0 0 0 0 0 0 0 0 0 0 0 0 0 0 0 0 0 0 0 0 0 0 0 0 0 0 0 0 0 0
0 0 0 0 0 0 0 0 0 0 0 0 0 0 0 0 0 0 0 0 0 0 0 0 0 0 0 0 0 0 0 0 0 0 0 0 0 0 0 0 0 0 0 0
0 0 0 0 0 0 0 0 0 0 0 0 0 0 0 0 0 0 0 0 0 0 0 0 0 0 0 0 0 0 0 0 0 0 0 0 0 0 0 0 0 0 0 0
0 0 0 0 0 0 0 0 0 0 0 0 0 0 0 0 0 0 0 0 0 0 0 0 0 0 0 0 0 0 0 0 0 0 0 0 0 0 0 0 0 0 0 0
0 0 0 0 0 0 0 0 0 0 0 0 0 0 0 0 0 0 0 0 0 0 0 0 0 0 0 0 0 0 0 0 0 0 0 0 0 0 0 0 0 0 0 0
0 0 0 0 0 0 0 0 0 0 0 0 0 0 0 0 0 0 0 0 0 0 0 0 0 0 0 0 0 0 0 0 0 0 0 0 0 0 0 0 0 0 0 0
0 0 0 0 0 0 0 0 0 0 0 0 0 0 0 0 0 0 0 0 0 0 0 0 0 0 0 0 0 0 0 0 0 0 0 0 0 0 0 0 0 0 0 0
0 0 0 0 0 0 0 0 0 0 0 0 0 0 0 0 0 0 0 0 0 0 0 0 0 0 0 0 0 0 0 0 0 0 0 0 0 0 0 0 0 0 0 0
0 0 0 0 0 0 0 0 0 0 0 0 0 0 0 0 0 0 0 0 0 0 0 0 0 0 0 0 0 0 0 0 0 0 0 0 0 0 0 0 0 0 0 0
0 0 0 0 0 0 0 0 0 0 0 0 0 0 0 0 0 0 0 0 0 0 0 0 0 0 0 0 0 0 0 0 0 0 0 0 0 0 0 0 0 0 0 0
0 0 0 0 0 0 0 0 0 0 0 0 0 0 0 0 0 0 0 0 0 0 0 0 0 0 0 0 0 0 0 0 0 0 0 0 0 0 0 0 0 0 0 0
Height
5768 5768 5768 5769 5770 5770 5771 5772 5772 5774 5774 5775 5775 5775 5776 5777 5777 5778 5780 5780 5781 5782 5783 5783 5784 5785 5786 5787 5788 5789 5790 5791 5791 5791 5791 5792 5792 5792 5792 5791 5791 5791 5790 5789
5760 5760 5760 5760 5761 5762 5763 5764 5764 5765 5767 5768 5767 5768 5769 5769 5770 5771 5772 5773 5774 5775 5776 5776 5777 5778 5778 5780 5781 5782 5782 5783 5784 5784 5784 5784 5785 5784 5784 5784 5784 5784 5783 5782
5752 5752 5751 5752 5754 5755 5755 5756 5757 5757 5760 5759 5759 5760 5761 5762 5763 5764 5764 5765 5766 5767 5768 5769 5769 5770 5771 5772 5773 5774 5774 5775 5776 5776 5777 5777 5777 5777 5777 5777 5777 5776 5776 5775
5743 5744 5743 5747 5747 5747 5747 5748 5749 5749 5750 5751 5751 5752 5753 5753 5754 5755 5756 5757 5758 5759 5760 5761 5762 5762 5763 5764 5765 5766 5766 5767 5767 5768 5768 5769 5769 5769 5769 5768 5768 5768 5767 5767
5735 5735 5735 5738 5739 5739 5739 5740 5741 5741 5741 5742 5743 5743 5744 5745 5746 5747 5748 5749 5750 5751 5751 5752 5753 5754 5755 5755 5756 5757 5758 5758 5758 5759 5759 5759 5760 5760 5760 5759 5759 5759 5758 5758
5727 5727 5728 5731 5731 5731 5732 5732 5733 5733 5733 5734 5734 5735 5737 5737 5737 5738 5739 5740 5741 5742 5742 5743 5744 5745 5746 5746 5747 5748 5748 5749 5749 5749 5749 5750 5750 5750 5750 5750 5750 5749 5749 5748
5719 5718 5719 5722 5722 5723 5725 5725 5725 5725 5725 5725 5726 5727 5728 5728 5729 5729 5730 5731 5731 5732 5733 5734 5734 5735 5736 5737 5738 5738 5738 5739 5739 5739 5739 5739 5739 5740 5740 5740 5740 5739 5739 5738
5711 5711 5713 5713 5713 5715 5715 5715 5716 5716 5716 5717 5717 5717 5718 5719 5719 5720 5720 5721 5722 5722 5723 5724 5725 5726 5726 5727 5728 5728 5728 5729 5729 5729 5729 5729 5729 5729 5729 5729 5729 5729 5728 5728
5704 5705 5704 5704 5704 5705 5706 5706 5706 5707 5707 5708 5708 5708 5709 5710 5710 5710 5710 5711 5711 5712 5713 5714 5714 5715 5716 5717 5717 5717 5718 5718 5719 5719 5719 5719 5719 5719 5719 5719 5718 5718 5718 5717
5694 5695 5695 5695 5695 5696 5696 5696 5697 5697 5698 5698 5698 5699 5699 5699 5700 5700 5700 5700 5701 5702 5703 5704 5704 5705 5705 5706 5706 5706 5707 5707 5708 5708 5708 5708 5708 5708 5708 5708 5708 5708 5707 5707
5685 5686 5686 5687 5687 5687 5687 5687 5687 5687 5688 5688 5689 5689 5689 5689 5689 5690 5690 5690 5691 5691 5692 5693 5694 5694 5694 5694 5694 5695 5696 5697 5697 5698 5698 5698 5698 5698 5698 5698 5698 5698 5697 5696
5677 5678 5678 5678 5678 5678 5677 5678 5678 5678 5679 5679 5679 5679 5679 5680 5680 5679 5679 5680 5680 5681 5681 5682 5682 5683 5683 5684 5684 5684 5685 5686 5686 5687 5687 5687 5687 5687 5687 5687 5687 5686 5686 5685
5669 5669 5669 5669 5669 5669 5668 5669 5669 5669 5669 5670 5670 5670 5670 5670 5670 5670 5670 5670 5670 5670 5671 5671 5672 5672 5673 5673 5673 5674 5674 5675 5676 5676 5676 5676 5677 5677 5677 5676 5676 5675 5675 5674
5661 5661 5661 5661 5660 5660 5659 5660 5660 5660 5660 5660 5660 5660 5660 5660 5660 5660 5660 5660 5660 5660 5661 5662 5662 5663 5663 5663 5664 5663 5664 5664 5665 5666 5666 5666 5666 5666 5666 5665 5665 5664 5664 5663
5653 5652 5652 5651 5651 5651 5650 5650 5651 5651 5651 5651 5651 5651 5651 5651 5650 5650 5650 5650 5650 5651 5651 5652 5652 5653 5653 5653 5653 5653 5654 5654 5655 5656 5656 5656 5655 5655 5655 5655 5654 5654 5653 5653
5644 5643 5643 5642 5642 5642 5642 5642 5642 5641 5642 5642 5642 5642 5641 5641 5641 5641 5641 5641 5641 5641 5642 5642 5642 5643 5643 5643 5643 5643 5644 5644 5645 5645 5646 5646 5645 5645 5644 5644 5644 5643 5643 5643
5635 5634 5634 5634 5634 5633 5633 5633 5633 5632 5632 5632 5632 5632 5632 5632 5632 5631 5631 5631 5632 5632 5632 5632 5632 5632 5633 5633 5633 5633 5634 5634 5635 5635 5635 5635 5635 5634 5634 5633 5633 5633 5633 5632
5627 5626 5626 5626 5625 5625 5625 5624 5624 5624 5623 5623 5623 5623 5623 5622 5622 5622 5622 5622 5622 5622 5622 5622 5622 5622 5623 5623 5623 5623 5624 5624 5624 5624 5624 5625 5624 5624 5623 5623 5622 5622 5621 5621
5618 5618 5618 5617 5617 5617 5616 5616 5616 5615 5615 5615 5615 5614 5614 5613 5613 5613 5613 5613 5613 5613 5613 5613 5613 5613 5613 5613 5614 5613 5613 5613 5613 5614 5614 5613 5613 5612 5612 5611 5611 5610 5610 5610
5611 5611 5610 5610 5609 5609 5609 5608 5608 5607 5607 5607 5606 5606 5605 5605 5604 5604 5604 5604 5604 5604 5604 5604 5604 5604 5604 5604 5604 5604 5603 5603 5603 5603 5603 5602 5602 5601 5601 5600 5600 5599 5599 5599
5604 5604 5603 5603 5602 5601 5601 5600 5600 5599 5599 5598 5598 5597 5597 5596 5596 5596 5596 5596 5595 5595 5595 5595 5594 5594 5594 5594 5594 5593 5593 5593 5593 5593 5592 5591 5591 5590 5590 5589 5589 5588 5587 5587
5597 5596 5595 5595 5594 5593 5593 5592 5592 5591 5590 5590 5590 5589 5588 5588 5588 5587 5587 5587 5586 5586 5586 5585 5585 5585 5585 5584 5584 5583 5583 5582 5582 5582 5581 5580 5580 5579 5578 5578 5577 5576 5576 5575
5589 5588 5587 5587 5586 5585 5585 5584 5583 5583 5582 5582 5581 5580 5580 5579 5579 5579 5578 5578 5577 5577 5577 5576 5576 5575 5575 5574 5574 5573 5573 5572 5571 5571 5570 5569 5568 5568 5567 5566 5565 5565 5564 5563
5581 5580 5580 5579 5578 5577 5576 5576 5575 5575 5574 5573 5573 5572 5571 5571 5570 5569 5569 5569 5568 5568 5568 5567 5566 5566 5565 5565 5564 5564 5563 5562 5561 5561 5560 5559 5558 5557 5556 5555 5554 5553 5553 5552
5574 5573 5572 5572 5571 5570 5569 5568 5568 5567 5566 5566 5565 5564 5563 5562 5562 5561 5560 5560 5559 5559 5559 5558 5557 5556 5556 5555 5554 5554 5553 5552 5551 5551 5549 5548 5548 5547 5546 5545 5543 5542 5541 5541
5567 5566 5565 5564 5563 5562 5561 5561 5560 5560 5559 5558 5557 5556 5555 5554 5553 5552 5552 5551 5551 5550 5549 5549 5548 5547 5546 5546 5545 5544 5543 5542 5541 5540 5540 5539 5538 5537 5536 5535 5533 5532 5531 5530
5559 5558 5557 5556 5555 5554 5554 5553 5553 5552 5552 5551 5550 5549 5548 5547 5546 5545 5544 5543 5542 5541 5540 5540 5539 5538 5537 5536 5535 5535 5534 5533 5532 5531 5530 5529 5528 5527 5526 5525 5524 5523 5521 5520
Wind_Speed
25 25 25 25 26 26 26 25 26 25 24 24 25 24 23 23 23 23 23 24 24 24 24 24 24 25 24 24 24 24 24 24 24 24 24 24 24 23 22 22 22 22 22 22
26 26 26 26 25 25 26 26 26 27 26 24 25 25 25 25 24 24 24 25 25 25 24 24 25 25 25 25 25 25 26 26 26 26 25 25 25 26 25 25 24 24 24 24
27 26 27 28 26 25 25 26 26 27 25 25 26 27 26 26 26 26 26 26 26 26 26 25 25 26 26 26 26 26 27 27 28 28 27 27 27 27 28 27 27 27 26 26
28 28 28 27 26 26 26 25 25 26 26 26 26 27 28 28 27 26 26 27 27 27 27 27 26 27 28 27 27 27 28 28 29 29 29 29 29 29 29 30 30 29 29 28
28 28 28 27 25 25 26 26 26 26 26 26 27 28 28 29 29 28 27 27 27 27 28 28 29 29 29 29 30 30 30 30 30 31 31 31 31 30 31 31 31 31 31 30
27 27 27 27 26 25 26 26 25 26 25 26 26 27 28 28 29 29 29 29 29 29 29 30 30 30 30 30 31 30 31 31 31 31 32 32 32 32 32 32 32 32 32 32
26 27 28 26 26 25 26 26 25 25 26 27 27 28 28 28 29 30 30 30 31 31 30 31 31 31 31 32 32 32 32 32 32 32 33 33 34 34 34 34 33 33 33 33
26 27 27 26 26 26 27 27 27 26 27 27 27 28 29 29 29 30 30 31 32 32 32 32 32 32 32 33 33 34 33 33 33 33 33 34 34 34 34 34 34 34 34 34
27 27 27 27 27 28 29 29 28 28 27 28 28 29 31 31 31 31 32 32 33 32 32 33 33 34 34 34 34 35 35 34 34 34 33 34 34 34 34 34 34 34 34 33
27 27 27 28 28 28 29 30 30 30 30 30 30 30 31 32 32 32 33 34 34 34 34 34 34 35 35 36 36 37 37 36 36 35 34 34 33 34 34 33 33 34 34 33
26 26 27 27 28 28 29 29 29 29 30 30 30 30 30 31 32 33 34 34 33 34 34 35 35 35 35 35 36 36 35 36 35 35 35 34 34 33 33 34 34 34 34 34
25 25 27 27 27 28 28 28 28 28 28 29 29 30 30 30 31 31 31 32 32 33 33 33 33 33 34 34 34 35 35 35 35 35 35 35 35 35 34 34 34 35 35 35
25 26 26 26 26 27 28 28 28 28 28 29 29 29 30 30 31 30 30 31 32 32 33 33 32 32 32 32 32 33 33 34 34 34 35 35 35 35 34 34 35 35 35 34
26 27 27 25 25 26 28 28 28 29 29 29 29 29 29 30 29 29 29 30 30 31 32 32 32 32 32 32 33 33 33 33 34 34 34 35 35 35 35 35 35 34 34 33
26 27 28 28 27 27 27 27 27 28 29 28 29 29 29 29 29 28 29 29 29 30 30 31 31 32 32 32 33 33 33 33 33 33 34 34 34 34 35 35 35 35 34 33
26 27 27 28 28 28 28 28 28 27 27 27 28 28 28 28 28 29 29 28 28 29 29 30 31 31 32 32 32 33 33 34 34 33 33 33 34 34 35 35 35 34 34 34
26 26 26 26 27 27 26 26 27 27 27 27 27 26 27 28 28 28 28 28 29 29 30 31 32 32 32 32 32 32 33 33 33 33 34 34 34 35 35 35 34 34 34 34
24 25 26 26 25 25 25 26 26 26 26 26 26 26 26 27 27 27 28 28 28 29 30 31 32 32 32 32 32 33 33 33 33 33 34 34 34 34 34 34 34 34 34 34
24 24 24 24 24 24 24 24 25 25 26 26 27 27 27 26 26 26 27 27 27 28 29 30 30 30 30 31 32 33 33 33 33 33 34 33 34 33 33 33 33 34 34 34
23 23 23 24 24 24 24 25 25 25 25 26 27 27 27 26 27 26 26 26 27 28 29 29 30 30 30 30 31 32 33 33 33 33 34 34 34 33 33 33 33 34 34 34
23 23 23 24 24 24 24 25 25 25 25 26 26 26 26 26 26 27 27 26 26 27 27 28 29 30 31 31 32 32 32 33 33 33 33 34 34 34 33 33 33 34 34 35
23 23 24 24 24 24 24 25 25 26 26 26 26 25 25 26 26 27 27 27 27 27 27 28 29 30 31 31 32 32 32 32 33 33 34 34 34 34 33 33 34 34 34 35
23 23 24 24 24 25 25 25 25 25 25 25 25 26 26 26 26 26 26 27 27 27 27 28 28 29 30 30 31 31 31 31 31 32 32 32 33 33 32 33 33 33 33 34
23 23 23 23 23 23 23 24 24 25 24 24 25 25 25 25 25 26 26 26 27 27 27 27 27 28 28 29 29 29 29 29 30 30 30 30 31 31 31 31 31 32 32 32
22 22 22 22 22 22 23 23 23 23 23 23 24 24 25 25 24 24 24 24 25 25 25 26 26 27 27 27 28 28 28 28 29 29 29 29 30 30 30 30 30 30 30 31
23 23 23 22 22 23 23 23 22 22 22 22 22 22 22 22 22 22 23 24 24 25 25 24 25 25 26 26 27 27 28 28 28 29 29 29 29 29 29 29 29 29 30 30
23 23 22 22 22 22 22 21 21 21 21 21 21 22 22 21 21 22 22 23 24 24 25 25 25 25 25 26 26 26 27 27 27 27 27 28 28 28 28 29 29 28 28 28
Wind_Direction
262 260 259 259 257 256 257 258 258 258 258 257 256 256 255 254 253 253 254 255 256 256 256 256 254 253 253 251 253 256 258 261 262 263 265 265 266 268 270 270 271 273 275 277
264 262 260 258 256 256 257 257 258 258 257 255 254 254 255 256 255 255 255 255 256 257 257 257 256 254 255 254 255 258 259 261 263 263 263 264 265 266 269 270 271 273 274 276
265 264 262 258 257 258 259 258 258 258 258 256 254 253 254 255 255 255 256 256 256 257 257 257 257 256 256 256 258 260 260 261 263 263 263 264 265 266 268 270 271 271 271 273
265 264 262 263 260 260 260 260 259 259 258 257 256 254 254 254 255 257 256 256 257 256 256 257 258 257 258 258 258 260 262 263 264 263 263 264 266 268 269 270 272 271 271 271
262 263 264 263 262 261 261 261 261 261 260 258 257 256 256 256 258 258 257 258 258 258 257 258 258 258 258 260 260 262 263 264 265 265 264 264 265 267 268 270 272 272 270 271
261 262 264 266 265 264 263 264 263 262 260 259 258 258 257 258 260 261 259 259 258 258 259 260 260 260 259 261 262 263 264 264 265 265 264 265 265 265 267 269 271 271 270 270
260 262 263 264 263 262 263 265 264 262 261 259 259 260 260 259 259 260 260 258 258 258 260 260 260 261 261 262 263 263 265 264 264 264 265 266 266 266 266 268 269 270 270 270
261 262 264 265 263 260 262 263 264 262 261 260 259 259 260 261 262 261 260 259 259 260 260 260 260 260 261 262 263 263 265 265 264 264 265 266 266 266 267 268 269 271 271 271
261 263 265 265 264 263 262 263 263 263 262 262 261 260 260 261 263 262 261 261 262 261 261 261 261 261 262 263 263 264 264 265 264 265 267 267 267 266 267 268 269 270 271 271
263 263 264 264 265 266 264 264 264 263 263 262 262 262 261 262 263 263 262 260 260 260 261 261 262 263 264 264 264 265 263 264 265 266 268 268 268 268 268 269 269 270 271 271
263 263 264 264 266 267 267 266 265 264 264 263 263 262 263 264 263 263 262 260 259 260 261 261 262 263 265 265 265 265 264 264 265 267 268 268 269 269 270 270 270 271 271 272
264 263 265 265 266 267 267 267 266 266 265 265 266 266 265 265 266 265 263 261 260 260 260 260 261 263 264 265 265 265 265 264 265 267 267 268 269 269 270 270 270 270 271 272
267 265 267 267 266 266 267 268 267 266 266 267 268 267 265 265 265 265 264 262 261 262 261 260 260 262 264 265 265 266 265 264 264 266 267 268 267 268 269 270 271 272 271 272
270 269 269 270 270 268 267 268 268 267 267 268 269 270 268 266 266 265 265 264 262 261 261 260 261 261 262 264 265 266 265 264 265 266 268 268 268 269 270 270 271 271 270 270
270 270 270 270 271 271 270 269 269 268 268 269 269 270 270 269 267 266 267 266 265 262 262 261 262 263 263 264 265 265 265 264 265 266 268 269 269 270 270 271 271 271 270 269
272 272 272 273 274 274 272 270 270 269 268 268 268 269 270 269 268 267 267 267 265 264 263 262 264 264 264 264 265 265 264 264 265 266 269 271 272 272 272 272 272 270 270 269
272 273 273 274 274 274 274 272 271 270 269 268 268 270 270 268 267 267 267 267 266 265 263 262 263 263 263 263 264 265 266 266 266 268 269 271 273 274 274 273 272 271 271 270
271 271 273 274 273 273 274 273 273 272 271 270 271 272 272 269 267 265 266 267 266 265 263 263 263 264 264 265 266 268 269 268 268 269 269 270 272 273 274 274 272 272 271 270
275 275 275 275 273 273 273 274 273 272 271 272 273 273 272 268 267 266 265 264 265 266 266 266 266 266 267 267 268 268 269 269 269 269 269 270 272 272 273 272 272 271 270 270
275 275 274 274 275 275 275 275 274 273 272 272 272 272 270 268 267 266 266 266 266 267 267 268 267 267 268 268 269 270 271 271 271 270 270 270 270 271 272 271 271 271 270 269
277 275 275 274 275 275 276 276 275 274 274 274 274 274 272 271 270 269 269 269 268 269 270 270 269 269 269 269 270 271 272 271 270 271 271 271 271 271 271 271 271 271 271 269
277 277 277 277 276 275 276 276 277 277 277 276 275 275 275 274 273 270 270 271 271 271 272 271 271 270 271 271 271 271 272 272 271 271 272 273 271 271 271 272 271 272 271 270
278 279 279 278 277 275 275 276 277 277 278 277 277 277 277 277 276 274 272 273 274 274 274 274 272 272 272 272 273 273 273 273 272 272 273 273 272 272 273 273 272 272 271 270
280 280 280 280 280 278 277 277 278 278 278 278 277 278 279 278 277 276 275 275 274 274 274 273 272 273 273 272 272 273 274 273 272 273 273 273 273 274 275 274 273 272 271 269
280 280 280 281 280 279 278 278 278 277 277 279 280 280 280 280 279 277 275 274 274 275 277 277 274 273 273 272 272 272 272 273 274 274 273 272 272 275 276 276 275 274 272 270
278 278 279 280 280 279 278 277 276 277 278 279 281 281 281 281 280 279 278 276 276 277 278 278 277 275 274 274 273 273 273 274 275 275 274 273 274 274 276 277 276 275 274 273
281 280 281 281 280 279 278 277 277 278 280 281 281 281 281 281 279 280 280 280 279 279 278 278 278 276 276 276 276 275 275 275 276 276 275 275 275 275 275 276 277 277 277 275